Regional Weather Roundup
Issued by NWS

Home | Current Version | Previous Version | Text Only | Print | Product List | Glossary On
Versions: 1 2 3 4 5 6 7 8 9 10 11 12 13 14 15 16 17 18 19 20 21 22 23 24 25 26 27 28 29 30 31 32 33 34 35 36 37 38 39 40 41 42 43 44 45 46 47 48 49 50
492
ASUS44 KJAN 230003
RWRMS

MISSISSIPPI HOURLY WEATHER ROUNDUP
NATIONAL WEATHER SERVICE JACKSON MS
700 PM CDT WED OCT 22 2014

NOTE: "FAIR: INDICATES FEW OR NO CLOUDS BELOW 12,000 FEET WITH NO
SIGNIFICANT WEATHER AND/OR OBSTRUCTIONS TO VISIBILITY.

MSZ001>002-007>008-010>013-018>021-025>028-034>036-230100-
NORTHWEST MISSISSIPPI

CITY           SKY/WX    TMP DP  RH WIND       PRES   REMARKS
CLARKSDALE     FAIR      59  46  63 NE7       30.17R
CLEVELAND      FAIR      59  47  65 NE7       30.14S
GREENWOOD      CLEAR     55  48  77 NE5       30.14R
6HR MIN TEMP:  55; 6HR MAX TEMP:  72;

GREENVILLE     CLEAR     62  43  49 NE7       30.13R
6HR MIN TEMP:  62; 6HR MAX TEMP:  74;

GRENADA          N/A    N/A N/A N/A MISG        N/A
OLIVE BRANCH   CLEAR     55  46  71 N6        30.18R
OXFORD         FAIR      52  46  82 CALM      30.17S
TUNICA         CLEAR     54  45  71 N5        30.17S
$$

MSZ003>006-009-014>017-022>024-029>033-037>039-230100-
NORTHEAST MISSISSIPPI

CITY           SKY/WX    TMP DP  RH WIND       PRES   REMARKS
COLUMBUS AFB   CLEAR     58  46  64 N5        30.14S
6HR MIN TEMP:  58; 6HR MAX TEMP:  70; 6HR PCP: TRACE;

CORINTH        FAIR      55  45  67 N3        30.16S
GOLDN TRIANGLE CLEAR     57  43  58 N7        30.14R
STARKVILLE     FAIR      55  46  71 CALM      30.14R
TUPELO         CLEAR     56  44  64 N5        30.15S
6HR MIN TEMP:  56; 6HR MAX TEMP:  69;

$$

MSZ040-058-230100-
CENTRAL MISSISSIPPI

CITY           SKY/WX    TMP DP  RH WIND       PRES   REMARKS
JACKSON INTL   CLEAR     64  48  56 NE7       30.11R
6HR MIN TEMP:  64; 6HR MAX TEMP:  75;

JACKSON HAWKNS CLEAR     66  47  50 N3        30.11R
6HR MIN TEMP:  66; 6HR MAX TEMP:  75;

MERIDIAN KEY   CLEAR     58  46  64 N7        30.11R
6HR MIN TEMP:  58; 6HR MAX TEMP:  74;

MERIDIAN NAS   CLEAR     60  46  59 N5        30.12R
6HR MIN TEMP:  60; 6HR MAX TEMP:  73;

RAYMOND        FAIR      61  57  88 N3        30.11R
VICKSBURG      CLEAR     60  49  66 N5        30.10S
6HR MIN TEMP:  60; 6HR MAX TEMP:  77;

$$

MSZ059>079-230100-
SOUTH MISSISSIPPI

CITY           SKY/WX    TMP DP  RH WIND       PRES   REMARKS
BROOKHAVEN     FAIR      64  52  63 N3        30.10S
COLUMBIA         N/A    N/A N/A N/A MISG        N/A
HATTIESBURG    CLEAR     64  51  62 N3        30.08R
6HR MIN TEMP:  64; 6HR MAX TEMP:  78;

MCCOMB         CLEAR     69  48  47 NE5       30.07R
6HR MIN TEMP:  69; 6HR MAX TEMP:  79;

NATCHEZ        CLEAR     64  52  63 NE3       30.09S
6HR MIN TEMP:  64; 6HR MAX TEMP:  75;

PINE BELT      CLEAR     63  46  55 N5        30.10R
6HR MIN TEMP:  63; 6HR MAX TEMP:  77;

$$

MSZ080>082-230100-
COASTAL MISSISSIPPI

CITY           SKY/WX    TMP DP  RH WIND       PRES   REMARKS
BAY ST LOUIS   CLEAR     63  54  72 VRB3      30.04R
BILOXI         CLEAR     70  54  56 NE7       30.04R
6HR MIN TEMP:  70; 6HR MAX TEMP:  80;

PASCAGOULA     CLEAR     63  52  67 N6        30.04R
6HR MIN TEMP:  62; 6HR MAX TEMP:  80;

GULFPORT       CLEAR     71  52  50 N6        30.04R
6HR MIN TEMP:  71; 6HR MAX TEMP:  81;

$$



USA.gov is the U.S. government's official web portal to all federal, state and local government web resources and services.